Date String (YYYY-MM-DD hh:mm:ss) UTC,Instrument flags,absolute air pressure of the measurement (hPa),sample flow rate (lpm),inlet stack bypass flow (lpm),air temperature of the measurement (°C),ambient temperature measured by the external sensor (°C),aerosol sample conditioner tube jacket temperature (°C),OPC LED temperature (°C),internal box temperature (°C),relative humidity of the measurement (%),span deviation,mass concentration of particles derived from Lorenz-Mie calculation of OPC scattering (μg/m³),mass concentration of particles derived from Lorenz-Mie calculation of OPC scattering (μg/m³),mass concentration of particles derived from Lorenz-Mie calculation of OPC scattering (μg/m³)
DateTimeUTC,F1_M11,P_M11,Q1_M11,Q2_M11,T1_M11,T2_M11,T3_M11,T4_M11,T5_M11,U1_M11,ZSPAN_M11,X2_M11,X0_M11,X1_M11
2024-05-24 06:00:00,SystemResetWarning,0823.3,4.99,000.00,028.0,027.0,000.0,036.4,029.7,007.7,0000.0,0001.89,0006.85,0000.82
2024-05-24 06:01:00,SystemResetWarning,0823.3,4.99,000.00,027.9,026.9,000.0,036.4,029.7,007.6,0000.0,0001.93,0006.02,0000.81
2024-05-24 06:02:00,SystemResetWarning,0823.2,5.00,000.00,027.9,026.9,000.0,036.4,029.6,007.7,0000.0,0001.95,0005.82,0000.81
2024-05-24 06:03:00,SystemResetWarning,0823.3,5.01,000.00,027.9,026.9,000.0,036.3,029.6,007.7,0000.0,0001.96,0005.44,0000.82
2024-05-24 06:04:00,SystemResetWarning,0823.3,5.01,000.00,027.9,026.9,000.0,036.3,029.6,007.9,0000.0,0001.97,0005.33,0000.83
2024-05-24 06:05:00,SystemResetWarning,0823.3,4.99,000.00,027.9,026.9,000.0,036.3,029.6,007.8,0000.0,0001.94,0006.09,0000.82
2024-05-24 06:06:00,SystemResetWarning,0823.3,4.99,000.00,027.9,026.9,000.0,036.3,029.6,007.9,0000.0,0001.88,0006.45,0000.81
2024-05-24 06:07:00,SystemResetWarning,0823.3,5.00,000.00,027.8,026.8,000.0,036.3,029.6,008.0,0000.0,0001.91,0007.33,0000.81
2024-05-24 06:08:00,SystemResetWarning,0823.1,5.01,000.00,027.8,026.8,000.0,036.3,029.6,008.0,0000.0,0001.87,0007.64,0000.82
2024-05-24 06:09:00,SystemResetWarning,0823.2,5.01,000.00,027.8,026.8,000.0,036.3,029.5,008.0,0000.0,0001.83,0008.35,0000.82
2024-05-24 06:10:00,SystemResetWarning,0823.2,5.00,000.00,027.8,026.8,000.0,036.2,029.5,008.0,0000.0,0001.82,0008.29,0000.82
2024-05-24 06:11:00,SystemResetWarning,0823.0,5.00,000.00,027.8,026.8,000.0,036.2,029.5,007.8,0000.0,0001.87,0008.53,0000.81
2024-05-24 06:12:00,SystemResetWarning,0823.0,5.00,000.00,027.7,026.7,000.0,036.2,029.4,007.7,0000.0,0001.86,0008.68,0000.82
2024-05-24 06:13:00,SystemResetWarning,0823.1,5.00,000.00,027.7,026.7,000.0,036.2,029.5,007.2,0000.0,0001.82,0009.25,0000.82
2024-05-24 06:14:00,SystemResetWarning,0823.1,5.00,000.00,027.7,026.7,000.0,036.2,029.4,007.4,0000.0,0001.76,0009.19,0000.80
2024-05-24 06:15:00,SystemResetWarning,0823.3,5.00,000.00,027.7,026.7,000.0,036.1,029.4,007.6,0000.0,0001.76,0009.15,0000.79
2024-05-24 06:16:00,SystemResetWarning,0823.3,5.00,000.00,027.7,026.7,000.0,036.1,029.4,007.8,0000.0,0001.76,0009.09,0000.79
2024-05-24 06:17:00,SystemResetWarning,0823.4,5.00,000.00,027.7,026.7,000.0,036.1,029.4,007.8,0000.0,0001.77,0008.77,0000.79
2024-05-24 06:18:00,SystemResetWarning,0823.5,5.00,000.00,027.7,026.7,000.0,036.1,029.4,007.8,0000.0,0001.66,0008.63,0000.78
2024-05-24 06:19:00,SystemResetWarning,0823.5,5.00,000.00,027.6,026.7,000.0,036.1,029.3,007.9,0000.0,0001.59,0008.41,0000.76
2024-05-24 06:20:00,SystemResetWarning,0823.5,5.00,000.00,027.6,026.7,000.0,036.0,029.3,007.8,0000.0,0001.61,0007.71,0000.76
2024-05-24 06:21:00,SystemResetWarning,0823.5,5.00,000.00,027.6,026.7,000.0,036.0,029.3,007.8,0000.0,0001.61,0007.81,0000.75
2024-05-24 06:22:00,SystemResetWarning,0823.6,4.99,000.00,027.6,026.7,000.0,036.0,029.3,007.7,0000.0,0001.58,0007.99,0000.75
2024-05-24 06:23:00,SystemResetWarning,0823.7,5.00,000.00,027.6,026.7,000.0,036.0,029.3,007.7,0000.0,0001.60,0007.85,0000.76
2024-05-24 06:24:00,SystemResetWarning,0823.7,5.00,000.00,027.6,026.7,000.0,036.0,029.3,007.7,0000.0,0001.63,0007.21,0000.77
2024-05-24 06:25:00,SystemResetWarning,0823.8,5.00,000.00,027.6,026.7,000.0,036.0,029.3,007.4,0000.0,0001.63,0008.05,0000.77
2024-05-24 06:26:00,SystemResetWarning,0823.8,5.00,000.00,027.6,026.7,000.0,036.0,029.3,007.6,0000.0,0001.63,0008.19,0000.78
2024-05-24 06:27:00,SystemResetWarning,0823.8,5.00,000.00,027.6,026.7,000.0,035.9,029.3,007.4,0000.0,0001.62,0008.46,0000.78
2024-05-24 06:28:00,SystemResetWarning,0823.8,5.00,000.00,027.6,026.7,000.0,035.9,029.3,007.4,0000.0,0001.61,0008.43,0000.78
2024-05-24 06:29:00,SystemResetWarning,0823.8,5.00,000.00,027.6,026.7,000.0,035.9,029.3,007.5,0000.0,0001.61,0007.81,0000.77
2024-05-24 06:30:00,SystemResetWarning,0823.8,5.00,000.00,027.6,026.7,000.0,035.9,029.3,007.6,0000.0,0001.65,0007.68,0000.77
2024-05-24 06:31:00,SystemResetWarning,0823.8,5.00,000.00,027.6,026.8,000.0,035.9,029.3,007.5,0000.0,0001.63,0007.73,0000.76
2024-05-24 06:32:00,SystemResetWarning,0823.8,4.99,000.00,027.6,026.8,000.0,035.9,029.3,007.5,0000.0,0001.60,0007.55,0000.76
2024-05-24 06:33:00,SystemResetWarning,0823.8,5.00,000.00,027.6,026.8,000.0,035.9,029.4,007.6,0000.0,0001.68,0007.14,0000.76
2024-05-24 06:34:00,SystemResetWarning,0823.8,5.00,000.00,027.6,026.8,000.0,035.9,029.4,007.6,0000.0,0001.70,0008.13,0000.75
2024-05-24 06:35:00,SystemResetWarning,0823.8,5.00,000.00,027.6,026.8,000.0,035.9,029.4,007.6,0000.0,0001.63,0008.21,0000.74
2024-05-24 06:36:00,SystemResetWarning,0823.8,5.01,000.00,027.6,026.8,000.0,035.9,029.4,007.5,0000.0,0001.62,0007.70,0000.74
2024-05-24 06:37:00,SystemResetWarning,0823.8,5.00,000.00,027.6,026.8,000.0,035.9,029.4,007.5,0000.0,0001.65,0007.58,0000.75
2024-05-24 06:38:00,SystemResetWarning,0823.8,4.99,000.00,027.6,026.8,000.0,035.9,029.4,007.5,0000.0,0001.63,0008.28,0000.74
2024-05-24 06:39:00,SystemResetWarning,0823.8,4.99,000.00,027.6,026.8,000.0,035.9,029.4,007.5,0000.0,0001.64,0009.53,0000.75
2024-05-24 06:40:00,SystemResetWarning,0823.8,4.99,000.00,027.6,026.9,000.0,035.9,029.4,007.5,0000.0,0001.62,0009.52,0000.75
2024-05-24 06:41:00,SystemResetWarning,0823.8,4.99,000.00,027.6,026.9,000.0,035.9,029.4,007.5,0000.0,0001.61,0009.55,0000.76
2024-05-24 06:42:00,SystemResetWarning,0823.8,5.01,000.00,027.6,026.9,000.0,035.9,029.4,007.4,0000.0,0001.63,0009.30,0000.77
2024-05-24 06:43:00,SystemResetWarning,0823.8,5.01,000.00,027.6,026.9,000.0,036.0,029.4,007.5,0000.0,0001.66,0009.45,0000.78
2024-05-24 06:44:00,SystemResetWarning,0823.8,4.99,000.00,027.7,026.9,000.0,035.9,029.4,007.5,0000.0,0001.57,0009.40,0000.79
2024-05-24 06:45:00,SystemResetWarning,0823.8,4.99,000.00,027.7,026.9,000.0,035.9,029.4,007.5,0000.0,0001.49,0008.67,0000.78
2024-05-24 06:46:00,SystemResetWarning,0823.8,5.00,000.00,027.7,026.9,000.0,036.0,029.4,007.5,0000.0,0001.52,0008.82,0000.77
2024-05-24 06:47:00,SystemResetWarning,0823.7,5.02,000.00,027.7,026.9,000.0,036.0,029.4,007.6,0000.0,0001.56,0008.62,0000.78
2024-05-24 06:48:00,SystemResetWarning,0823.6,5.01,000.00,027.7,026.9,000.0,036.0,029.5,007.6,0000.0,0001.53,0009.00,0000.76
2024-05-24 06:49:00,SystemResetWarning,0823.7,5.00,000.00,027.7,026.9,000.0,036.0,029.5,007.7,0000.0,0001.56,0008.31,0000.77
2024-05-24 06:50:00,SystemResetWarning,0823.7,5.00,000.00,027.7,026.9,000.0,036.0,029.4,007.8,0000.0,0001.58,0007.42,0000.77
2024-05-24 06:51:00,SystemResetWarning,0823.6,5.00,000.00,027.7,026.9,000.0,036.0,029.4,007.5,0000.0,0001.61,0007.32,0000.77
2024-05-24 06:52:00,SystemResetWarning,0823.6,5.00,000.00,027.6,026.8,000.0,036.0,029.4,007.5,0000.0,0001.59,0007.22,0000.77
2024-05-24 06:53:00,SystemResetWarning,0823.5,5.00,000.00,027.6,026.8,000.0,036.0,029.4,007.6,0000.0,0001.63,0007.33,0000.77
2024-05-24 06:54:00,SystemResetWarning,0823.5,5.00,000.00,027.6,026.8,000.0,036.0,029.4,007.7,0000.0,0001.59,0007.22,0000.76
2024-05-24 06:55:00,SystemResetWarning,0823.6,5.00,000.00,027.6,026.8,000.0,036.0,029.4,007.7,0000.0,0001.55,0007.01,0000.75
2024-05-24 06:56:00,SystemResetWarning,0823.5,5.00,000.00,027.6,026.8,000.0,036.0,029.4,007.1,0000.0,0001.57,0007.01,0000.75
2024-05-24 06:57:00,SystemResetWarning,0823.5,5.00,000.00,027.6,026.8,000.0,036.0,029.4,007.3,0000.0,0001.56,0006.99,0000.76
2024-05-24 06:58:00,SystemResetWarning,0823.4,5.01,000.00,027.6,026.8,000.0,036.0,029.4,007.6,0000.0,0001.56,0007.28,0000.76
2024-05-24 06:59:00,SystemResetWarning,0823.5,5.00,000.00,027.6,026.8,000.0,036.0,029.4,007.5,0000.0,0001.54,0006.48,0000.76
